Sauk Centre, MN

7:09 AM CST on November 15, 2019 (GMT -0600)
Sauk Centre

Weather History for KD39 - September, 2019

Change the Weather History Date:

Tuesday, September 17, 2019

  Actual Average (KGHW) Record (KGHW)
Temperature  
Mean Temperature 75 °F -  
Max Temperature 84 °F 71 °F 94 °F (1955)
Min Temperature 66 °F 46 °F 36 °F (1959)
Cooling Degree Days 10    
Growing Degree Days 25 (Base 50)    
Moisture  
Dew Point 70 °F    
Average Humidity 85    
Maximum Humidity 94    
Minimum Humidity 66    
Precipitation  
Precipitation 0.70 in - - ()
Sea Level Pressure  
Sea Level Pressure 29.90 in    
Wind  
Wind Speed 11 mph ()    
Max Wind Speed 28 mph    
Max Gust Speed 34 mph    
Visibility 9.5 miles    
Events Rain , Thunderstorm    
Averages and records for this station are not official NWS values.
T = Trace of Precipitation, MM = Missing Value Source: Averaged Metar Reports

Daily Weather History Graph

Daily Weather History Graph

Search for Another Location

Airport or City:

Astronomy

Sep. 17, 2019 Rise Set
Actual Time 7:00 AM CDT 7:27 PM CDT
Civil Twilight 6:30 AM CDT 7:57 PM CDT
Nautical Twilight 5:55 AM CDT 8:32 PM CDT
Astronomical Twilight 5:18 AM CDT 9:08 PM CDT
Moon 9:21 PM CDT (9/17) 10:13 AM CDT (9/17)
Length of Visible Light 13h 26m
Length of Day
12h 27m
Waning Gibbous, 89% of the Moon is Illuminated
Sep 17
Waning Gibbous
Sep 21
Last Quarter
Sep 28
New
Oct 5
First Quarter
Oct 13
Full

Hourly Weather History & Observations

Time (CDT) Temp. Heat Index Dew Point Humidity Pressure Visibility Wind Dir Wind Speed Gust Speed Precip Events Conditions
12:16 AM 73.6 °F - 70.5 °F 90% 29.93 in 10.0 mi South 9.2 mph - N/A   Clear
12:35 AM 73.6 °F - 70.7 °F 91% 29.93 in 10.0 mi SSE 10.4 mph - N/A   Clear
12:55 AM 73.4 °F - 70.3 °F 90% 29.92 in 10.0 mi SSE 10.4 mph - N/A   Clear
12:56 AM 73.4 °F - 70.3 °F 90% 29.92 in 10.0 mi SSE 9.2 mph - N/A   Clear
1:15 AM 73.4 °F - 70.3 °F 90% 29.92 in 10.0 mi SSE 11.5 mph - N/A   Clear
1:16 AM 73.4 °F - 70.3 °F 90% 29.92 in 10.0 mi SSE 11.5 mph - N/A   Clear
1:38 AM 73.4 °F - 70.3 °F 90% 29.93 in 10.0 mi South 8.1 mph - N/A   Clear
1:55 AM 73.8 °F - 70.3 °F 89% 29.93 in 10.0 mi South 11.5 mph - N/A   Clear
1:59 AM 73.8 °F - 70.3 °F 89% 29.93 in 10.0 mi South 11.5 mph - N/A   Clear
2:17 AM 73.8 °F - 70.3 °F 89% 29.93 in 10.0 mi SSE 10.4 mph - N/A   Clear
2:36 AM 73.6 °F - 70.3 °F 90% 29.92 in 10.0 mi SSE 11.5 mph - N/A   Clear
2:56 AM 73.6 °F - 70.2 °F 89% 29.92 in 10.0 mi South 13.8 mph - N/A   Clear
3:15 AM 73.6 °F - 70.2 °F 89% 29.93 in 10.0 mi South 11.5 mph - N/A   Clear
3:16 AM 73.6 °F - 70.0 °F 88% 29.93 in 10.0 mi South 11.5 mph - N/A   Clear
3:35 AM 73.4 °F - 70.0 °F 89% 29.93 in 10.0 mi South 10.4 mph - N/A   Clear
3:39 AM 73.4 °F - 70.0 °F 89% 29.93 in 10.0 mi South 9.2 mph - N/A   Clear
3:58 AM 72.9 °F - 70.0 °F 91% 29.93 in 10.0 mi South 8.1 mph - N/A   Mostly Cloudy
4:15 AM 72.5 °F - 69.8 °F 91% 29.93 in 10.0 mi South 6.9 mph - N/A Thunderstorm Scattered Clouds
4:36 AM 72.5 °F - 69.8 °F 91% 29.94 in 10.0 mi South 10.4 mph - N/A Thunderstorm Scattered Clouds
4:56 AM 73.8 °F - 69.4 °F 86% 29.95 in 10.0 mi SW 10.4 mph 17.3 mph N/A Thunderstorm Thunderstorm
4:59 AM 73.4 °F - 69.8 °F 88% 29.95 in 10.0 mi West 17.3 mph - N/A Thunderstorm Thunderstorm
5:15 AM 70.0 °F - 67.1 °F 91% 29.97 in 5.0 mi WSW 8.1 mph - 0.11 in Rain , Thunderstorm Heavy Thunderstorms and Rain
5:17 AM 69.6 °F - 67.3 °F 92% 29.97 in 3.0 mi SW 5.8 mph - 0.18 in Rain , Thunderstorm Heavy Thunderstorms and Rain
5:59 AM 69.8 °F - 66.2 °F 88% 29.95 in 5.0 mi SSW 15.0 mph 23.0 mph 0.34 in Rain , Thunderstorm Heavy Thunderstorms and Rain
6:59 AM 66.2 °F - 64.4 °F 94% 29.96 in 10.0 mi ESE 11.5 mph - 0.09 in Rain , Thunderstorm Light Thunderstorms and Rain
7:59 AM 68.0 °F - 66.2 °F 94% 29.92 in 4.0 mi East 12.7 mph 18.4 mph 0.19 in Rain , Thunderstorm Heavy Thunderstorms and Rain
8:59 AM 68.0 °F - 66.2 °F 94% 29.90 in 10.0 mi ESE 13.8 mph 18.4 mph 0.08 in   Mostly Cloudy
9:59 AM 69.8 °F - 68.0 °F 94% 29.89 in 10.0 mi ESE 16.1 mph 25.3 mph N/A   Mostly Cloudy
10:59 AM 71.6 °F - 69.8 °F 94% 29.89 in 10.0 mi SE 11.5 mph 18.4 mph N/A   Overcast
11:59 AM 77.0 °F - 71.6 °F 83% 29.87 in 10.0 mi SE 17.3 mph 25.3 mph N/A   Mostly Cloudy
12:59 PM 80.6 °F 84.6 °F 71.6 °F 74% 29.85 in 10.0 mi South 23.0 mph 28.8 mph N/A   Clear
1:59 PM 82.4 °F 87.2 °F 71.6 °F 70% 29.83 in 10.0 mi South 27.6 mph 33.4 mph N/A   Clear
2:59 PM 84.2 °F 89.6 °F 71.6 °F 66% 29.82 in 10.0 mi South 21.9 mph 34.5 mph N/A   Clear
3:59 PM 84.2 °F 89.6 °F 71.6 °F 66% 29.81 in 10.0 mi South 20.7 mph 27.6 mph N/A   Clear
4:59 PM 84.2 °F 89.6 °F 71.6 °F 66% 29.80 in 10.0 mi South 23.0 mph 26.5 mph N/A   Clear
5:59 PM 82.4 °F 87.2 °F 71.6 °F 70% 29.80 in 10.0 mi South 19.6 mph 25.3 mph N/A   Clear
6:59 PM 78.8 °F - 69.8 °F 74% 29.80 in 10.0 mi SSE 13.8 mph - N/A   Clear
7:59 PM 77.0 °F - 69.8 °F 78% 29.81 in 10.0 mi SSE 11.5 mph - N/A   Clear
8:59 PM 75.2 °F - 68.0 °F 78% 29.83 in 10.0 mi SSE 12.7 mph - N/A   Clear
9:59 PM 75.2 °F - 68.0 °F 78% 29.83 in 10.0 mi SSE 11.5 mph - N/A   Clear
10:59 PM 75.2 °F - 69.8 °F 83% 29.83 in 10.0 mi SSE 17.3 mph 21.9 mph N/A   Mostly Cloudy
11:59 PM 75.2 °F - 68.0 °F 78% 29.82 in 10.0 mi SSE 15.0 mph - N/A   Scattered Clouds